Hourly Weather Lukovytsya

Today, 13 May, Thursday

Time Temperature Precipitation Wind Pressure Humidity
00:00 +10°C° 0 mm 4 mps 736 mmHg 76%
01:00 +10°C° 0 mm 4 mps 736 mmHg 77%
02:00 +9°C° 0 mm 5 mps 735 mmHg 77%
03:00 +9°C° 0 mm 5 mps 735 mmHg 79%
04:00 +8°C° 0 mm 5 mps 734 mmHg 82%
05:00 +8°C° 0 mm 5 mps 734 mmHg 84%
06:00 +9°C° 0 mm 5 mps 734 mmHg 82%
07:00 +10°C° 0 mm 5 mps 733 mmHg 80%
08:00 +11°C° 0 mm 6 mps 733 mmHg 78%
09:00 +14°C° 0.1 mm 6 mps 733 mmHg 74%
10:00 +15°C° 0.1 mm 6 mps 733 mmHg 69%
11:00 +17°C° 0.1 mm 6 mps 733 mmHg 65%
12:00 +17°C° 0.3 mm 5 mps 732 mmHg 67%
13:00 +17°C° 0.3 mm 5 mps 732 mmHg 69%
14:00 +18°C° 0.3 mm 4 mps 732 mmHg 72%
15:00 +17°C° 0.4 mm 4 mps 732 mmHg 74%
16:00 +17°C° 0.4 mm 4 mps 732 mmHg 76%
17:00 +17°C° 0.4 mm 4 mps 732 mmHg 78%
18:00 +15°C° 0.5 mm 4 mps 732 mmHg 82%
19:00 +13°C° 0.5 mm 3 mps 732 mmHg 86%
20:00 +12°C° 0.5 mm 3 mps 733 mmHg 90%
21:00 +11°C° 0.1 mm 3 mps 733 mmHg 92%
22:00 +12°C° 0.1 mm 2 mps 733 mmHg 93%
23:00 +10°C° 0.1 mm 2 mps 733 mmHg 94%

Tomorrow, 14 May, Friday

Time Temperature Precipitation Wind Pressure Humidity
00:00 +11°C° 0 mm 1 mps 733 mmHg 93%
01:00 +10°C° 0 mm 1 mps 733 mmHg 92%
02:00 +10°C° 0 mm 1 mps 733 mmHg 91%
03:00 +10°C° 0 mm 1 mps 733 mmHg 90%
04:00 +10°C° 0 mm 1 mps 733 mmHg 89%
05:00 +11°C° 0 mm 1 mps 733 mmHg 89%
06:00 +12°C° 0 mm 1 mps 733 mmHg 85%
07:00 +13°C° 0 mm 1 mps 733 mmHg 80%
08:00 +15°C° 0 mm 1 mps 733 mmHg 76%
09:00 +15°C° 0.3 mm 2 mps 733 mmHg 75%
10:00 +16°C° 0.3 mm 2 mps 734 mmHg 74%
11:00 +16°C° 0.3 mm 2 mps 734 mmHg 73%
12:00 +17°C° 0.3 mm 3 mps 734 mmHg 70%
13:00 +17°C° 0.3 mm 3 mps 734 mmHg 67%
14:00 +18°C° 0.3 mm 4 mps 734 mmHg 64%
15:00 +18°C° 0.1 mm 4 mps 734 mmHg 63%
16:00 +16°C° 0.1 mm 5 mps 735 mmHg 63%
17:00 +16°C° 0.1 mm 5 mps 735 mmHg 62%
18:00 +15°C° 0 mm 5 mps 735 mmHg 64%
19:00 +14°C° 0 mm 4 mps 735 mmHg 66%
20:00 +13°C° 0 mm 4 mps 735 mmHg 67%
21:00 +13°C° 0.1 mm 4 mps 735 mmHg 68%
22:00 +12°C° 0.1 mm 3 mps 736 mmHg 69%
23:00 +12°C° 0.1 mm 3 mps 736 mmHg 70%

Day after tomorrow, 15 May, Saturday

Time Temperature Precipitation Wind Pressure Humidity
00:00 +12°C° 0.1 mm 3 mps 736 mmHg 72%
01:00 +12°C° 0.1 mm 3 mps 736 mmHg 75%
02:00 +12°C° 0.1 mm 2 mps 736 mmHg 77%
03:00 +12°C° 0 mm 2 mps 737 mmHg 77%
04:00 +12°C° 0 mm 2 mps 737 mmHg 77%
05:00 +12°C° 0 mm 1 mps 737 mmHg 76%
06:00 +13°C° 0 mm 1 mps 737 mmHg 75%
07:00 +14°C° 0 mm 1 mps 738 mmHg 74%
08:00 +14°C° 0 mm 1 mps 738 mmHg 74%
09:00 +15°C° 0 mm 1 mps 738 mmHg 72%
10:00 +16°C° 0 mm 1 mps 739 mmHg 70%
11:00 +16°C° 0 mm 1 mps 739 mmHg 68%
12:00 +17°C° 0 mm 2 mps 739 mmHg 64%
13:00 +18°C° 0 mm 2 mps 739 mmHg 61%
14:00 +19°C° 0 mm 3 mps 738 mmHg 57%
15:00 +19°C° 0 mm 3 mps 738 mmHg 59%
16:00 +19°C° 0 mm 3 mps 738 mmHg 60%
17:00 +19°C° 0 mm 3 mps 738 mmHg 61%
18:00 +18°C° 0 mm 3 mps 738 mmHg 68%
19:00 +16°C° 0 mm 2 mps 738 mmHg 74%
20:00 +14°C° 0 mm 2 mps 737 mmHg 81%
21:00 +14°C° 0 mm 2 mps 737 mmHg 82%
22:00 +13°C° 0 mm 2 mps 737 mmHg 84%
23:00 +12°C° 0 mm 2 mps 737 mmHg 85%

16 May, Sunday

Time Temperature Precipitation Wind Pressure Humidity
00:00 +12°C° 0 mm 2 mps 737 mmHg 86%
01:00 +12°C° 0 mm 1 mps 737 mmHg 87%
02:00 +11°C° 0 mm 1 mps 737 mmHg 88%
03:00 +11°C° 0 mm 1 mps 737 mmHg 89%
04:00 +11°C° 0 mm 1 mps 737 mmHg 90%
05:00 +11°C° 0 mm 1 mps 737 mmHg 91%
06:00 +13°C° 0 mm 2 mps 737 mmHg 86%
07:00 +13°C° 0 mm 3 mps 737 mmHg 82%
08:00 +16°C° 0 mm 3 mps 737 mmHg 77%
09:00 +18°C° 0 mm 4 mps 737 mmHg 71%
10:00 +19°C° 0 mm 4 mps 737 mmHg 66%
11:00 +21°C° 0 mm 5 mps 736 mmHg 61%
12:00 +21°C° 0.4 mm 4 mps 736 mmHg 63%
13:00 +21°C° 0.4 mm 3 mps 736 mmHg 65%
14:00 +20°C° 0.4 mm 3 mps 736 mmHg 66%
15:00 +20°C° 0.2 mm 3 mps 736 mmHg 69%
16:00 +20°C° 0.2 mm 2 mps 735 mmHg 71%
17:00 +19°C° 0.2 mm 2 mps 735 mmHg 73%
18:00 +18°C° 0.6 mm 2 mps 735 mmHg 78%
19:00 +17°C° 0.6 mm 2 mps 734 mmHg 83%
20:00 +15°C° 0.6 mm 2 mps 734 mmHg 88%
21:00 +15°C° 0.9 mm 2 mps 734 mmHg 89%
22:00 +15°C° 0.9 mm 1 mps 734 mmHg 90%
23:00 +14°C° 0.9 mm 1 mps 734 mmHg 91%

17 May, Monday

Time Temperature Precipitation Wind Pressure Humidity
00:00 +14°C° 0.1 mm 1 mps 734 mmHg 91%
01:00 +14°C° 0.1 mm 1 mps 734 mmHg 91%
02:00 +14°C° 0.1 mm 1 mps 734 mmHg 90%
03:00 +14°C° 0.1 mm 2 mps 734 mmHg 91%
04:00 +13°C° 0.1 mm 2 mps 734 mmHg 92%
05:00 +12°C° 0.1 mm 3 mps 734 mmHg 93%
06:00 +13°C° 0 mm 3 mps 735 mmHg 89%
07:00 +14°C° 0 mm 4 mps 735 mmHg 86%
08:00 +14°C° 0 mm 4 mps 735 mmHg 82%
09:00 +15°C° 0.1 mm 4 mps 735 mmHg 77%
10:00 +17°C° 0.1 mm 4 mps 735 mmHg 72%
11:00 +18°C° 0.1 mm 4 mps 735 mmHg 67%
12:00 +19°C° 0.2 mm 4 mps 734 mmHg 65%
13:00 +19°C° 0.2 mm 3 mps 734 mmHg 62%
14:00 +20°C° 0.2 mm 3 mps 734 mmHg 60%
15:00 +20°C° 0.1 mm 2 mps 734 mmHg 60%
16:00 +20°C° 0.1 mm 2 mps 734 mmHg 61%
17:00 +20°C° 0.1 mm 2 mps 734 mmHg 61%
18:00 +19°C° 0.1 mm 1 mps 734 mmHg 67%
19:00 +18°C° 0.1 mm 1 mps 734 mmHg 73%
20:00 +14°C° 0.1 mm 0 mps 734 mmHg 79%
21:00 +14°C° 0.2 mm 0 mps 734 mmHg 82%
22:00 +14°C° 0.2 mm 1 mps 734 mmHg 85%
23:00 +13°C° 0.2 mm 1 mps 735 mmHg 88%

18 May, Tuesday

Time Temperature Precipitation Wind Pressure Humidity
00:00 +13°C° 0.2 mm 1 mps 735 mmHg 89%
01:00 +13°C° 0.2 mm 1 mps 735 mmHg 90%
02:00 +12°C° 0.2 mm 1 mps 734 mmHg 92%
03:00 +13°C° 0.1 mm 1 mps 734 mmHg 91%
04:00 +13°C° 0.1 mm 1 mps 734 mmHg 91%
05:00 +13°C° 0.1 mm 2 mps 734 mmHg 91%
06:00 +14°C° 0 mm 1 mps 734 mmHg 85%
07:00 +16°C° 0 mm 1 mps 734 mmHg 80%
08:00 +18°C° 0 mm 1 mps 734 mmHg 74%
09:00 +20°C° 0 mm 1 mps 735 mmHg 67%
10:00 +20°C° 0 mm 2 mps 735 mmHg 60%
11:00 +23°C° 0 mm 2 mps 735 mmHg 53%
12:00 +23°C° 0.1 mm 2 mps 735 mmHg 52%
13:00 +23°C° 0.1 mm 2 mps 735 mmHg 52%
14:00 +23°C° 0.1 mm 2 mps 735 mmHg 52%
15:00 +20°C° 0.1 mm 3 mps 735 mmHg 60%
16:00 +19°C° 0.1 mm 4 mps 735 mmHg 67%
17:00 +16°C° 0.1 mm 5 mps 736 mmHg 74%
18:00 +15°C° 0.1 mm 4 mps 736 mmHg 76%
19:00 +14°C° 0.1 mm 4 mps 736 mmHg 77%
20:00 +13°C° 0.1 mm 3 mps 736 mmHg 79%
21:00 +13°C° 0 mm 4 mps 737 mmHg 80%
22:00 +12°C° 0 mm 5 mps 737 mmHg 81%
23:00 +10°C° 0 mm 5 mps 737 mmHg 82%
Show more

We Need Your Consent

Meteoprog and our Service Providers may store and access personal data such as cookies, device identifiers or other similar technologies on your device and process such data to personalise content and ads, as well as provide social media features and to analyse the traffic.

  • Store and/or access information on your device

    Cookies, device identifiers or other information can be stored or accessed on your device for the purposes indicated above.

  • Personalised ads and content, ad and content measurement, audience insights, and products development

    Ads and content can be personalised based on a profile. More data can be added to better personalise ads and content. Ad and content performance can be measured. Insights about the audience who saw the ads and content can be derived. Such data can be used to develop or improve user’s experience, systems and software.

By clicking ‘I Agree’ you will allow the use of indicated cookies, device identifiers, web beacons or other similar technologies. Your settings can be changed in the browser on your device.

For certain purposes, legitimate interests may be relied on, rather than consent. You can read more about this in our Privacy and Cookie Policy.